Weather History for Hanford, CA

Change the Weather History Date:

Friday, August 30, 2013

  Actual Average Record
Temperature  
Mean Temperature 81 °F 77 °F  
Max Temperature 98 °F 94 °F 107 °F (2008)
Min Temperature 64 °F 60 °F 51 °F (2010)
Degree Days  
Heating Degree Days 0    
Month to date heating degree days 0  
Since 1 June heating degree days 0  
Since 1 July heating degree days 0  
Cooling Degree Days 16    
Month to date cooling degree days 447  
Year to date cooling degree days 1704  
Since 1 June cooling degree days 1452  
Growing Degree Days 31 (Base 50)    
Moisture  
Dew Point 56 °F    
Average Humidity 47    
Maximum Humidity 73    
Minimum Humidity 21    
Precipitation  
Precipitation 0.00 in 0.00 in 0.05 in (2007)
Month to date precipitation 0.00 0.02  
Year to date precipitation 1.60 6.80  
Since 1 July precipitation T 0.04  
Snow  
Snow 0.00 in - - ()
Month to date snowfall 0.0  
Since 1 June snowfall 0.0  
Since 1 July snowfall 0.0  
Snow Depth 0.00 in    
Sea Level Pressure  
Sea Level Pressure 29.94 in    
Wind  
Wind Speed 6 mph (NW)    
Max Wind Speed 14 mph    
Max Gust Speed 18 mph    
Visibility 9 miles    
Events      
T = Trace of Precipitation, MM = Missing Value Source: NWS Daily Summary

Daily Weather History Graph

Daily Weather History Graph

Search for Another Location

Airport:

Trip Planner

Search our weather history database for the weather conditions in past years. The results will help you decide how hot, cold, wet, or windy it might be!

Date:

Astronomy

Aug. 30, 2013 Rise Set
Actual Time 6:28 AM PDT 7:28 PM PDT
Civil Twilight 6:02 AM PDT 7:55 PM PDT
Nautical Twilight 5:30 AM PDT 8:26 PM PDT
Astronomical Twilight 4:58 AM PDT 8:58 PM PDT
Moon 1:16 AM PDT (8/30) 3:43 PM PDT (8/30)
Length of Visible Light 13h 52m
Length of Day
13h 00m
Waning Crescent, 28% of the Moon is Illuminated
Aug 30
Waning Crescent
Sep 5
New
Sep 12
First Quarter
Sep 19
Full
Sep 26
Last Quarter

Hourly Weather History & Observations

Time (PDT) Temp. Heat Index Dew Point Humidity Pressure Visibility Wind Dir Wind Speed Gust Speed Precip Events Conditions
12:53 AM 77.0 °F - 55.9 °F 48% 29.98 in 10.0 mi NW 10.4 mph - N/A   Clear
1:53 AM 73.9 °F - 55.9 °F 53% 29.97 in 10.0 mi NNW 6.9 mph - N/A   Clear
2:53 AM 72.0 °F - 57.0 °F 59% 29.96 in 10.0 mi NNW 6.9 mph - N/A   Clear
3:53 AM 70.0 °F - 57.0 °F 63% 29.96 in 10.0 mi North 5.8 mph - N/A   Clear
4:53 AM 69.1 °F - 57.0 °F 65% 29.96 in 10.0 mi North 3.5 mph - N/A   Clear
5:53 AM 64.9 °F - 55.9 °F 73% 29.98 in 10.0 mi Calm Calm - N/A   Clear
6:53 AM 68.0 °F - 57.0 °F 68% 29.99 in 10.0 mi WNW 4.6 mph - N/A   Clear
7:53 AM 71.1 °F - 57.0 °F 61% 30.01 in 10.0 mi West 4.6 mph - N/A   Clear
8:53 AM 75.0 °F - 57.9 °F 55% 30.01 in 10.0 mi NW 8.1 mph - N/A   Clear
9:53 AM 79.0 °F - 57.9 °F 48% 30.01 in 10.0 mi NW 9.2 mph - N/A   Clear
10:53 AM 82.9 °F 82.6 °F 57.9 °F 42% 30.01 in 10.0 mi NNW 8.1 mph - N/A   Clear
11:53 AM 87.1 °F 86.5 °F 59.0 °F 39% 29.99 in 10.0 mi Variable 6.9 mph - N/A   Clear
12:53 PM 89.1 °F 87.7 °F 57.0 °F 34% 29.97 in 8.0 mi NW 9.2 mph - N/A   Clear
1:53 PM 93.0 °F 91.7 °F 57.0 °F 30% 29.95 in 5.0 mi Variable 6.9 mph - N/A   Haze
2:53 PM 93.0 °F 91.1 °F 55.0 °F 28% 29.92 in 3.0 mi Variable 5.8 mph - N/A   Haze
3:53 PM 96.1 °F 93.8 °F 54.0 °F 24% 29.89 in 6.0 mi NNW 4.6 mph - N/A   Haze
4:53 PM 98.1 °F - 51.1 °F 20% 29.88 in 9.0 mi NW 6.9 mph - N/A   Clear
5:53 PM 97.0 °F - 51.1 °F 21% 29.86 in 9.0 mi NNW 5.8 mph - N/A   Clear
6:53 PM 93.9 °F 92.0 °F 55.0 °F 27% 29.86 in 7.0 mi NW 6.9 mph - N/A   Clear
7:53 PM 90.0 °F 88.6 °F 57.0 °F 33% 29.87 in 8.0 mi Calm Calm - N/A   Clear
8:53 PM 84.0 °F 83.5 °F 57.9 °F 41% 29.89 in 8.0 mi West 3.5 mph - N/A   Clear
9:53 PM 84.0 °F 83.0 °F 55.9 °F 38% 29.90 in 9.0 mi WNW 3.5 mph - N/A   Clear
10:53 PM 84.9 °F 83.3 °F 54.0 °F 34% 29.91 in 10.0 mi NW 5.8 mph - N/A   Clear
11:53 PM 81.0 °F 81.0 °F 57.0 °F 44% 29.91 in 10.0 mi WNW 3.5 mph - N/A   Clear